Regional Weather Roundup
Issued by NWS Northern Indiana

Home | Current Version | Previous Version | Text Only | Print | Product List | Glossary Off
Versions: 1 2 3 4 5 6 7 8 9 10 11 12 13 14 15 16 17 18 19 20 21 22 23 24 25 26 27 28 29 30 31 32 33 34 35 36 37 38 39 40 41 42 43 44 45 46 47 48 49 50

000
ASUS43 KIWX 061400
RWRIWX

KIWX WEATHER ROUNDUP
NATIONAL WEATHER SERVICE NORTHERN INDIANA
1000 AM EDT WED MAY 06 2015

NOTE: "FAIR" INDICATES FEW OR NO CLOUDS BELOW 12,000 FEET WITH NO
SIGNIFICANT WEATHER AND/OR OBSTRUCTIONS TO VISIBILITY.

* THESE STATIONS ARE NOT UNDER NWS QUALITY CONTROL. THEY ALSO MAY NOT
  REPORT WEATHER SUCH AS PRECIPITATION OR FOG.

INZ001>027-061500-
NORTHERN INDIANA

CITY           SKY/WX    TMP DP  RH WIND       PRES   REMARKS
GARY*          CLOUDY    59 N/A N/A SE8       30.19S FOG
VALPARAISO     CLOUDY    57  55  94 E8        30.21S FOG
SOUTH BEND     CLOUDY    59  54  83 SE9       30.22S HAZE
ELKHART*       CLOUDY    57  55  94 E7        30.23S FOG
GOSHEN         CLOUDY    57  54  89 SE8       30.22S FOG
ANGOLA*        CLOUDY    55  43  62 SE7       30.23F
FORT WAYNE     CLOUDY    55  54  96 E7        30.24S FOG

$$
INZ028>050-061500-
CENTRAL INDIANA

CITY           SKY/WX    TMP DP  RH WIND       PRES   REMARKS
LAFAYETTE      PTSUNNY   66  60  81 CALM      30.19S HAZE
KOKOMO*        MOSUNNY   63  57  82 SE5       30.22R
MUNCIE*        PTSUNNY   72  60  66 VRB3      30.22R
INDIANAPOLIS   MOSUNNY   74  56  53 VRB3      30.20S

$$
MIZ043>046-050>051-056>058-064>065-071>073-077>080-061500-
SOUTHWEST LOWER MICHIGAN

CITY           SKY/WX    TMP DP  RH WIND       PRES   REMARKS
BATTLE CREEK   CLOUDY    55  53  93 SE5       30.24S FOG
BENTON HARBOR  PTSUNNY   58  55  90 E9        30.20S FOG
COLDWATER*     CLOUDY    55  55  99 SE5       30.25R FOG
HILLSDALE*     FOG       54  54 100 E6        30.25R VSB 1/4
HOLLAND        CLOUDY    56  54  93 E9        30.23S FOG
GRAND RAPIDS   CLOUDY    55  52  89 E7        30.25R FOG
KALAMAZOO      CLOUDY    56  54  93 SE6       30.24S FOG
STURGIS*       CLOUDY    55  55 100 SE6       30.23S FOG
THREE RIVERS*  LGT RAIN  55  55  99 CALM      30.24S

$$
OHZ001>008-015>018-024>025-061500-
NORTHWEST OHIO

CITY           SKY/WX    TMP DP  RH WIND       PRES   REMARKS
DEFIANCE       FOG       55  54  96 E5        30.25S VSB 1/2
FINDLAY        CLOUDY    57  54  89 E3        30.23S FOG
TOLEDO EXPRESS CLOUDY    53  53 100 NE6       30.25S FOG
TOLEDO METCALF FOG       53  51  93 NE8       30.26S VSB 1
LIMA           CLOUDY    57  56  96 CALM      30.23S FOG

$$
AND FOR LAKE MICHIGAN COASTAL AND OPEN LAKE BUOY OBSERVATIONS

STATION/POSITION TEMP    WIND        PRES    VSBY  WAVE
                 AIR SEA DIR/SP/G                  HT/PER
                 (F)     (DEG/KT/KT) (MB)    (MI)  (FT/S)
CALUMET HARBOR    52      10/  1/  2   N/A
MICHIGAN CITY     57     120/  6/  8   N/A
BURNS HARBOR      60     170/  6/  9 1022.7S
SAINT JOSEPH      60     140/  2/  7 1023.4S
4 MI NW BRIDGMAN  54 50  150/  6/  6   N/A           0
MICHIGAN CITY     56 52  160/  2/  4   N/A           1

$$
&&


USA.gov is the U.S. government's official web portal to all federal, state and local government web resources and services.